www.pogodaiklimat.ru

Погода и климат >> Архив погоды >> Россия >> Оренбургская область >> Первомайский


ПОГОДА в Первомайском

  • Прогноз погоды в Первомайском
  • Монитор погоды в Первомайском

АРХИВ ПОГОДЫ в Первомайском

Время (UTC), дата Ветер
(напр.,м/с)
 
Видим.   Явления Облачность Т
(С)
Тd
(С)
f
(%)
Тe
(С)
Тes
(С)
Комфортность P
(гПа)
Po
(гПа)
Тmin
(С)
Tmax
(С)
R
(мм)
R24
(мм)
S
(см)
06 17.07 В 3 10 км слаб. ливневой дождь 10/8 720 м
[Cb cap Ac trans]
+19.0 +14.7 76 +20 +21 1011.1 1002.9 +17.9
09 17.07 В 3 20 км в посл. час ливневой дождь 10/6 600 м
[Cb cap Ac trans]
+21.7 +15.4 67 +25 +27 комфорт 1010.1 1002.1
12 17.07 В 4 20 км {ливн. осадки} 8/0
[Ac trans]
+24.6 +15.7 58 +28 +31 душно 1008.9 1001.0
15 17.07 В 5-12
{12}
20 км 8/0
[Ac cast]
+25.8 +13.7 47 +28 +28 жарко 1007.7 999.8 +26.6 2
18 17.07 В 3 10 км 8/8 600 м
[Cb cap]
+22.0 +13.8 60 +25 +25 комфорт 1007.3 999.3
21 17.07 В 3 10 км 8/0
[Cc]
+20.2 +13.6 66 +23 +23 комфорт 1006.6 998.4
00 18.07 СВ 1 10 км 4/0
[Ac cast]
+17.6 +12.6 72 +19 +19 1005.5 997.4
03 18.07 СВ 1 20 км 1/0
[Ac cast]
+19.8 +13.2 66 +23 +26 комфорт 1004.9 996.8 +15.8
06 18.07 З 2 20 км 6/0
[Ci fib]
+26.2 +14.7 49 +29 +39 жарко 1003.9 996.0
09 18.07 СЗ 2 20 км 8/0
[Ci fib]
+30.2 +14.2 38 +32 +46 жарко 1004.1 996.3
12 18.07 З 2 20 км 8/1 1500 м
[Cu hum Ci fib]
+32.8 +13.4 31 +34 +41 очень
жарко
1004.3 996.6
15 18.07 З 2 20 км 9/0
[Ac cast Cs]
+30.4 +13.7 36 +32 +33 жарко 1005.2 997.5 +32.8
18 18.07 З 1 10 км 3/0
[Ci fib]
+23.4 +16.0 63 +28 +28 душно 1006.8 998.9
21 18.07 СЗ 2 10 км 5/0
[Ac trans]
+21.6 +15.8 70 +25 +25 комфорт 1007.5 999.5
00 19.07 Ю 1 10 км 8/0
[Ac trans Ci fib]
+17.5 +15.1 86 +19 +19 1008.7 1000.6
03 19.07 штиль 0 20 км 9/0
[Ac cast Cs]
+20.4 +15.9 75 +23 +25 комфорт 1009.8 1001.7 +16.4
06 19.07 С 3 20 км 8/0
[Ac cast Cs]
+26.0 +16.3 55 +29 +36 душно 1009.4 1001.5
09 19.07 С 3 20 км 8/3 1000 м
[Cb cap Ac cast Cs]
+27.3 +12.3 39 +29 +35 жарко 1009.4 1001.5
12 19.07 С 3 20 км 9/6 1000 м
[Cb cap Ac trans Ci fib]
+27.3 +11.8 38 +28 +30 жарко 1009.4 1001.5
15 19.07 С 2 20 км 4/0
[Ac cast Ci fib]
+26.8 +11.4 38 +28 +29 жарко 1009.4 1001.5 +29.1
18 19.07 С 1 10 км 1/0
[Ac lent]
+22.1 +11.6 51 +24 +24 комфорт 1010.7 1002.6
21 19.07 штиль 0 10 км ясно +14.9 +10.6 75 +15 +15 1011.4 1003.2
00 20.07 ЮВ 1 10 км ясно +13.4 +10.3 81 +14 +14 1012.2 1003.8
03 20.07 ЮЗ 1 20 км 4/0
[Ci fib]
+18.3 +13.1 72 +20 +23 1012.8 1004.7 +12.9
06 20.07 З 1 20 км 9/0
[Ac lent Cc]
+26.9 +14.9 48 +30 +38 душно 1012.8 1004.8
09 20.07 З 4 20 км 8/0
[Ac As Cc]
+27.1 +9.8 34 +28 +33 жарко 1012.9 1004.9
12 20.07 З 4
{10}
20 км 3/1 1500 м
[Cu hum Ac As]
+29.7 +6.2 23 +28 +33 жарко 1012.4 1004.5
15 20.07 СЗ 3
{10}
20 км 1/1 1500 м
[Sc diur, vesp]
+28.2 +7.8 28 +28 +28 жарко 1012.9 1005.0 +30.1
18 20.07 З 2 10 км ясно +23.0 +11.0 47 +25 +25 комфорт 1014.2 1006.1
21 20.07 З 2 10 км ясно +16.7 +9.5 62 +17 +17 1014.7 1006.5
00 21.07 Ю 1 10 км ясно +11.3 +8.0 80 +11 +11 1015.3 1006.9
03 21.07 ЮЗ 1 20 км ясно +16.8 +10.3 65 +18 +21 1015.9 1007.7 +10.9
06 21.07 З 2 20 км 1/1 1000 м
[Cu hum]
+27.3 +10.7 35 +28 +38 жарко 1015.6 1007.6
09 21.07 З 4 20 км 8/8 1000 м
[Cu hum]
+29.0 +7.8 26 +28 +30 жарко 1014.9 1007.0
12 21.07 З 3
{10}
20 км 4/4 1000 м
[Cu hum]
+29.8 +8.0 26 +29 +33 жарко 1014.1 1006.2
15 21.07 СЗ 3 20 км ясно +28.4 +7.8 27 +28 +29 жарко 1013.9 1006.0 +30.1
18 21.07 ЮЗ 1 10 км 1/0
[Ci fib]
+17.9 +9.9 59 +19 +19 1014.4 1006.2
21 21.07 З 1 10 км 1/0
[Ci fib]
+15.7 +8.9 64 +16 +16 1014.1 1005.8
00 22.07 штиль 0 10 км 8/0
[Ac trans Ci]
+12.1 +8.1 77 +12 +12 1014.4 1006.0
03 22.07 штиль 0 20 км 9/0
[Ac cast Cs]
+16.6 +10.3 66 +17 +19 1014.3 1006.1 +12.0
06 22.07 ЮЗ 1 20 км 9/0
[Ac trans Cs]
+25.1 +12.2 45 +27 +36 жарко 1013.4 1005.4
09 22.07 З 3 20 км 9/4 1000 м
[Cu med, cong Cs]
+28.0 +8.0 28 +28 +34 жарко 1012.0 1004.1
12 22.07 З 2 20 км 8/4 1000 м
[Cu med, cong Ci fib]
+29.5 +7.5 25 +29 +33 жарко 1010.7 1002.9
15 22.07 СЗ 3 20 км 4/3 1500 м
[Cu med, cong Ac trans Ci fib]
+27.9 +8.4 29 +28 +28 жарко 1009.8 1001.9 +29.7
18 22.07 С 1 10 км 3/3 600 м
[Sc diur, vesp Ac trans]
+20.9 +12.4 58 +24 +24 комфорт 1011.0 1002.9
21 22.07 штиль 0 10 км ясно +14.1 +10.3 78 +14 +14 1011.8 1003.5
00 23.07 штиль 0 10 км 3/0
[Ac trans Ci fib]
+15.2 +10.7 74 +15 +15 1012.7 1004.4
03 23.07 З 1 20 км ясно +17.2 +11.6 70 +18 +21 1013.3 1005.1 +13.7
06 23.07 СЗ 3 20 км 3/3 1000 м
[Cu hum]
+22.4 +11.8 51 +25 +31 комфорт 1013.6 1005.6
09 23.07 СЗ 3 20 км 6/5 1500 м
[Cu hum Ci fib]
+24.7 +11.1 42 +26 +32 жарко 1013.6 1005.5
12 23.07 С 3 20 км 9/5 1500 м
[Cu hum Cs]
+26.4 +10.3 36 +27 +30 жарко 1012.9 1005.0
15 23.07 С 2 20 км 9/1 1500 м
[Cu hum Ac cuf Cs]
+25.8 +10.0 37 +27 +27 жарко 1013.3 1005.3 +26.8
18 23.07 СВ 1 10 км ясно +18.7 +11.0 61 +20 +20 1014.9 1006.7
21 23.07 штиль 0 10 км ясно +12.6 +8.9 78 +12 +12 1015.3 1006.9
03 24.07 штиль 0 20 км 4/0
[Ci fib]
+14.6 +9.8 73 +14 +17 1016.1 1007.8 +10.9

 

Местоположение метеостанции Первомайский (Оренбургская область, Россия): широта 51.90 долгота 51.65 высота над уровнем моря 70 м.

В архиве по умолчанию представлена погода в Первомайском за последнюю неделю. Архивные данные за месяц целиком и за предыдущие месяцы, начиная с января 2011 года, Вы можете получить, выбрав интересующий диапазон дат из раскрывающегося списка и нажав кнопку "Ввод!".


*Определитесь, кто Вы:
робот инопланетянин человек

Внимание! Время в таблицах - всемирное. Для получения местного времени необходимо прибавить поправку, которая равна 5 ч.

Смотрите также архив погоды в соседних городах и на ближайших метеорологических станциях:

Погода в Январцево (Западно-Казахстанская область, Казахстан) (57 км)
Погода в Уральске (Западно-Казахстанская область, Казахстан) (77 км)
Погода в Авангард Зерносовхозе (Самарская область, Россия) (84 км)
Погода в Перелюбе (Саратовская область, Россия) (91 км)
Погода в Большая Глушица (Самарская область, Россия) (97 км)
Погода в Бузулуке (Оренбургская область, Россия) (109 км)
Погода в Сорочинске (Оренбургская область, Россия) (117 км)
Погода в Анкаты (Западно-Казахстанская область, Казахстан) (121 км)
Погода в Аксае (Западно-Казахстанская область, Казахстан) (123 км)
Погода в Илеке (Оренбургская область, Россия) (126 км)

Пояснения к столбцам:

Ветер - указаны скорость ветра в м/с - средняя за 10 мин, порывы в срок и между сроками (в фигурных скобках) и направление, откуда дует ветер: С - северный, СВ - северо-восточный, В - восточный, ЮВ - юго-восточный, Ю - южный, ЮЗ - юго-западный, З - западный, СЗ - северо-западный.
Видимость - горизонтальная дальность видимости в метрах или километрах. При видимости от 1 до 10 км при отсутствии осадков обычно наблюдается дымка, при ухудшении видимости до 1 км и менее - туман. В сухую погоду видимость может ухудшаться дымом, пылью или мглою.
Явления - указаны атмосферные явления, наблюдавшиеся в срок или в последний час перед сроком; фигурными скобками обозначены явления, наблюдавшиеся между сроками (за 1-3 часа до срока); квадратными скобками обозначены град или гололедные отложения с указанием их диаметра в мм.
Облачность - указаны через наклонную черту общая и нижняя облачность в баллах и высота нижней границы облаков в метрах; квадратными скобками обозначены формы облаков: Ci - перистые, Cs - перисто-слоистые, Cc - перисто-кучевые, Ac - высококучевые, As - высокослоистые, Sc - слоисто-кучевые, Ns - слоисто-дождевые, Cu - кучевые, Cb - кучево-дождевые. Подробнее классификацию облаков см. в Атласе облаков (PDF).
T - Температура воздуха - температура, измеренная на высоте 2 м над землей.
Td - Температура точки росы - температура, при понижении до которой содержащийся в воздухе водяной пар достигнет насыщения.
f - Относительная влажность воздуха - влажноcть воздуха, измеренная на высоте 2 м над землей.
Te - Эффективная температура - температура, которую ощущает одетый по сезону человек в тени. Характеристика душности погоды. При расчете учитывается влияние влажности воздуха и скорости ветра на теплоощущения человека.
Tes - Эффективная температура на солнце - температура, которую ощущает человек, с поправкой на солнечный нагрев. Характеристика знойности погоды. Зависит от высоты солнца над горизонтом, облачности и скорости ветра. Ночью, в пасмурную погоду, а также при ветре 12 м/с и более поправка равна нулю.
P - Атмосферное давление - приведенное к уровню моря атмосферное давление.
Po - Атмосферное давление - измеренное на уровне метеостанции атмосферное давление.
Tmin - Минимальная температура - минимум температуры воздуха на высоте 2 м над землей.
Tmax - Максимальная температура - максимум температуры воздуха на высоте 2 м над землей.
R - Количество осадков - Количество выпавших осадков за период времени, мм. При наведении курсора мыши на число - период времени, за который выпало указанное количество осадков.
R24 - Количество осадков - Количество выпавших осадков за 24 часа, мм.
S - Снежный покров - Высота снежного покрова, см. При наведении курсора мыши на число - состояние снежного покрова и степень покрытия местности в баллах.